• In Deutschland
  • Länderverzeichnis
  • Für 7 Tage
  • Wassertemperatur
  • Satellitenkarten
  • Wetterkarte
  • Widgets
  • user-avatar
    Anmelden

    Stündliche Wetter Beloozersk

    Heute, 24 Oktober, Mittwoch

    Zeit Temperatur Niederschläge Wind Luftdruck Luftfeuchtigkeit
    00:00 +1°C° 0 mm 2 m/S 702 mmHg 73%
    01:00 +1°C° 0 mm 2 m/S 702 mmHg 76%
    02:00 +1°C° 0 mm 2 m/S 702 mmHg 77%
    03:00 +1°C° 0 mm 2 m/S 702 mmHg 79%
    04:00 -1°C° 0 mm 2 m/S 703 mmHg 81%
    05:00 +1°C° 0.2 mm 2 m/S 703 mmHg 83%
    06:00 0°C° 0.2 mm 3 m/S 703 mmHg 84%
    07:00 0°C° 0.2 mm 3 m/S 703 mmHg 86%
    08:00 -1°C° 1 mm 4 m/S 703 mmHg 86%
    09:00 -1°C° 1 mm 5 m/S 704 mmHg 85%
    10:00 -1°C° 1 mm 6 m/S 704 mmHg 85%
    11:00 -2°C° 0.6 mm 6 m/S 704 mmHg 82%
    12:00 -2°C° 0.6 mm 7 m/S 704 mmHg 79%
    13:00 -2°C° 0.6 mm 8 m/S 705 mmHg 77%
    14:00 -2°C° 0.2 mm 7 m/S 705 mmHg 77%
    15:00 -3°C° 0.2 mm 7 m/S 706 mmHg 77%
    16:00 -3°C° 0.2 mm 6 m/S 706 mmHg 77%
    17:00 -4°C° 0.1 mm 5 m/S 707 mmHg 77%
    18:00 -4°C° 0.1 mm 5 m/S 708 mmHg 76%
    19:00 -3°C° 0.1 mm 4 m/S 708 mmHg 76%
    20:00 -4°C° 0 mm 4 m/S 709 mmHg 76%
    21:00 -4°C° 0 mm 4 m/S 710 mmHg 76%
    22:00 -4°C° 0 mm 3 m/S 710 mmHg 76%
    23:00 -5°C° 0 mm 3 m/S 711 mmHg 77%

    Morgen, 25 Oktober, Donnerstag

    Zeit Temperatur Niederschläge Wind Luftdruck Luftfeuchtigkeit
    00:00 -5°C° 0 mm 2 m/S 711 mmHg 78%
    01:00 -5°C° 0 mm 2 m/S 711 mmHg 79%
    02:00 -6°C° 0 mm 2 m/S 711 mmHg 80%
    03:00 -6°C° 0 mm 2 m/S 712 mmHg 81%
    04:00 -7°C° 0 mm 2 m/S 712 mmHg 82%
    05:00 -7°C° 0 mm 2 m/S 712 mmHg 82%
    06:00 -7°C° 0 mm 2 m/S 712 mmHg 82%
    07:00 -8°C° 0 mm 2 m/S 713 mmHg 82%
    08:00 -6°C° 0 mm 2 m/S 713 mmHg 75%
    09:00 -4°C° 0 mm 2 m/S 713 mmHg 69%
    10:00 -2°C° 0 mm 2 m/S 713 mmHg 62%
    11:00 -1°C° 0 mm 2 m/S 713 mmHg 59%
    12:00 +1°C° 0 mm 2 m/S 713 mmHg 56%
    13:00 +1°C° 0 mm 3 m/S 712 mmHg 53%
    14:00 +1°C° 0 mm 2 m/S 712 mmHg 56%
    15:00 +1°C° 0 mm 2 m/S 712 mmHg 59%
    16:00 +1°C° 0 mm 1 m/S 712 mmHg 62%
    17:00 0°C° 0 mm 1 m/S 712 mmHg 64%
    18:00 -1°C° 0 mm 1 m/S 712 mmHg 67%
    19:00 -2°C° 0 mm 1 m/S 712 mmHg 70%
    20:00 -2°C° 0 mm 1 m/S 712 mmHg 71%
    21:00 -2°C° 0 mm 1 m/S 713 mmHg 72%
    22:00 -2°C° 0 mm 1 m/S 713 mmHg 72%
    23:00 -2°C° 0 mm 1 m/S 713 mmHg 73%

    übermorgen, 26 Oktober, Freitag

    Zeit Temperatur Niederschläge Wind Luftdruck Luftfeuchtigkeit
    00:00 -2°C° 0 mm 1 m/S 713 mmHg 74%
    01:00 -2°C° 0 mm 1 m/S 712 mmHg 75%
    02:00 -2°C° 0 mm 1 m/S 712 mmHg 76%
    03:00 -2°C° 0 mm 1 m/S 712 mmHg 77%
    04:00 -2°C° 0 mm 1 m/S 712 mmHg 78%
    05:00 -1°C° 0 mm 1 m/S 712 mmHg 79%
    06:00 -1°C° 0 mm 1 m/S 713 mmHg 80%
    07:00 -1°C° 0 mm 1 m/S 713 mmHg 81%
    08:00 -2°C° 0 mm 2 m/S 713 mmHg 77%
    09:00 +1°C° 0 mm 2 m/S 713 mmHg 74%
    10:00 +2°C° 0 mm 2 m/S 713 mmHg 70%
    11:00 +3°C° 0 mm 2 m/S 713 mmHg 67%
    12:00 +4°C° 0 mm 2 m/S 712 mmHg 64%
    13:00 +5°C° 0 mm 2 m/S 712 mmHg 61%
    14:00 +4°C° 0 mm 2 m/S 712 mmHg 64%
    15:00 +4°C° 0 mm 2 m/S 712 mmHg 66%
    16:00 +4°C° 0 mm 1 m/S 712 mmHg 69%
    17:00 +4°C° 0 mm 1 m/S 712 mmHg 72%
    18:00 +2°C° 0 mm 2 m/S 712 mmHg 75%
    19:00 +1°C° 0 mm 2 m/S 712 mmHg 78%
    20:00 +1°C° 0 mm 2 m/S 712 mmHg 79%
    21:00 +1°C° 0 mm 2 m/S 712 mmHg 80%
    22:00 +1°C° 0 mm 2 m/S 712 mmHg 81%
    23:00 -1°C° 0 mm 2 m/S 712 mmHg 81%

    27 Oktober, Samstag

    Zeit Temperatur Niederschläge Wind Luftdruck Luftfeuchtigkeit
    00:00 -1°C° 0 mm 2 m/S 712 mmHg 82%
    01:00 -1°C° 0 mm 2 m/S 712 mmHg 82%
    02:00 -1°C° 0 mm 2 m/S 712 mmHg 82%
    03:00 -1°C° 0 mm 2 m/S 712 mmHg 81%
    04:00 -1°C° 0 mm 2 m/S 712 mmHg 81%
    05:00 -1°C° 0 mm 2 m/S 712 mmHg 81%
    06:00 -1°C° 0 mm 2 m/S 711 mmHg 81%
    07:00 -1°C° 0 mm 2 m/S 711 mmHg 81%
    08:00 +1°C° 0 mm 3 m/S 711 mmHg 76%
    09:00 +1°C° 0 mm 4 m/S 711 mmHg 72%
    10:00 +4°C° 0 mm 4 m/S 711 mmHg 67%
    11:00 +3°C° 0 mm 5 m/S 710 mmHg 66%
    12:00 +4°C° 0 mm 6 m/S 710 mmHg 65%
    13:00 +5°C° 0 mm 6 m/S 709 mmHg 64%
    14:00 +4°C° 0.1 mm 6 m/S 709 mmHg 65%
    15:00 +3°C° 0.1 mm 6 m/S 709 mmHg 67%
    16:00 +3°C° 0.1 mm 5 m/S 709 mmHg 69%
    17:00 +2°C° 0 mm 5 m/S 710 mmHg 72%
    18:00 +1°C° 0 mm 4 m/S 710 mmHg 74%
    19:00 +1°C° 0 mm 3 m/S 711 mmHg 76%
    20:00 +1°C° 0 mm 3 m/S 711 mmHg 78%
    21:00 +1°C° 0 mm 2 m/S 711 mmHg 81%
    22:00 +1°C° 0 mm 2 m/S 711 mmHg 83%
    23:00 +1°C° 0 mm 2 m/S 712 mmHg 83%

    28 Oktober, Sonntag

    Zeit Temperatur Niederschläge Wind Luftdruck Luftfeuchtigkeit
    00:00 +3°C° 0 mm 1 m/S 712 mmHg 83%
    01:00 +3°C° 0 mm 1 m/S 712 mmHg 84%
    02:00 +3°C° 0.1 mm 1 m/S 712 mmHg 85%
    03:00 +3°C° 0.1 mm 1 m/S 712 mmHg 86%
    04:00 +3°C° 0.1 mm 1 m/S 712 mmHg 87%
    05:00 +3°C° 0 mm 1 m/S 712 mmHg 87%
    06:00 +3°C° 0 mm 1 m/S 712 mmHg 87%
    07:00 +2°C° 0 mm 1 m/S 712 mmHg 87%
    08:00 +4°C° 0 mm 1 m/S 712 mmHg 83%
    09:00 +5°C° 0 mm 1 m/S 712 mmHg 78%
    10:00 +6°C° 0 mm 1 m/S 712 mmHg 74%
    11:00 +7°C° 0 mm 1 m/S 711 mmHg 71%
    12:00 +8°C° 0 mm 1 m/S 711 mmHg 67%
    13:00 +9°C° 0 mm 1 m/S 711 mmHg 64%
    14:00 +8°C° 0 mm 1 m/S 710 mmHg 68%
    15:00 +7°C° 0 mm 1 m/S 710 mmHg 72%
    16:00 +7°C° 0 mm 1 m/S 710 mmHg 76%
    17:00 +5°C° 0 mm 1 m/S 710 mmHg 79%
    18:00 +4°C° 0 mm 1 m/S 710 mmHg 82%
    19:00 +3°C° 0 mm 1 m/S 710 mmHg 85%
    20:00 +3°C° 0 mm 1 m/S 709 mmHg 86%
    21:00 +1°C° 0 mm 0 m/S 709 mmHg 86%
    22:00 +1°C° 0 mm 0 m/S 709 mmHg 87%
    23:00 0°C° 0 mm 0 m/S 709 mmHg 88%

    29 Oktober, Montag

    Zeit Temperatur Niederschläge Wind Luftdruck Luftfeuchtigkeit
    00:00 0°C° 0 mm 0 m/S 709 mmHg 88%
    01:00 0°C° 0 mm 0 m/S 708 mmHg 89%
    02:00 +1°C° 0 mm 1 m/S 708 mmHg 89%
    03:00 +1°C° 0 mm 1 m/S 708 mmHg 89%
    04:00 0°C° 0 mm 1 m/S 708 mmHg 90%
    05:00 0°C° 0 mm 1 m/S 708 mmHg 90%
    06:00 0°C° 0 mm 1 m/S 708 mmHg 90%
    07:00 0°C° 0 mm 1 m/S 708 mmHg 90%
    08:00 +1°C° 0 mm 1 m/S 708 mmHg 84%
    09:00 +2°C° 0 mm 0 m/S 708 mmHg 79%
    10:00 +3°C° 0 mm 0 m/S 708 mmHg 73%
    11:00 +5°C° 0 mm 1 m/S 708 mmHg 70%
    12:00 +6°C° 0 mm 1 m/S 709 mmHg 67%
    13:00 +7°C° 0 mm 1 m/S 709 mmHg 64%
    14:00 +7°C° 0 mm 1 m/S 709 mmHg 68%
    15:00 +6°C° 0 mm 1 m/S 710 mmHg 72%
    16:00 +5°C° 0 mm 1 m/S 710 mmHg 76%
    17:00 +4°C° 0 mm 1 m/S 710 mmHg 79%
    18:00 +3°C° 0 mm 1 m/S 711 mmHg 82%
    19:00 +2°C° 0 mm 1 m/S 711 mmHg 85%
    20:00 +2°C° 0 mm 1 m/S 712 mmHg 86%
    21:00 +2°C° 0 mm 1 m/S 712 mmHg 86%
    22:00 +1°C° 0 mm 1 m/S 712 mmHg 87%
    23:00 +1°C° 0 mm 1 m/S 712 mmHg 87%

    30 Oktober, Dienstag

    Zeit Temperatur Niederschläge Wind Luftdruck Luftfeuchtigkeit
    00:00 +1°C° 0 mm 1 m/S 712 mmHg 88%
    01:00 +1°C° 0 mm 1 m/S 712 mmHg 88%
    02:00 +1°C° 0 mm 1 m/S 711 mmHg 87%
    03:00 +1°C° 0 mm 1 m/S 711 mmHg 87%
    04:00 +1°C° 0 mm 1 m/S 711 mmHg 87%
    05:00 +1°C° 0 mm 1 m/S 711 mmHg 87%
    06:00 0°C° 0 mm 1 m/S 711 mmHg 86%
    07:00 0°C° 0 mm 1 m/S 710 mmHg 86%
    08:00 +2°C° 0 mm 1 m/S 710 mmHg 80%
    09:00 +3°C° 0 mm 2 m/S 710 mmHg 75%
    10:00 +4°C° 0 mm 2 m/S 709 mmHg 69%
    11:00 +5°C° 0 mm 2 m/S 709 mmHg 66%
    12:00 +5°C° 0 mm 3 m/S 708 mmHg 63%
    13:00 +7°C° 0 mm 3 m/S 708 mmHg 60%
    14:00 +5°C° 0 mm 3 m/S 707 mmHg 65%
    15:00 +5°C° 0 mm 2 m/S 707 mmHg 70%
    16:00 +4°C° 0 mm 2 m/S 706 mmHg 75%
    17:00 +3°C° 0 mm 2 m/S 706 mmHg 79%
    18:00 +2°C° 0 mm 2 m/S 706 mmHg 82%
    19:00 +1°C° 0 mm 2 m/S 706 mmHg 86%
    20:00 +1°C° 0 mm 2 m/S 705 mmHg 86%
    21:00 +1°C° 0 mm 2 m/S 705 mmHg 86%
    22:00 -1°C° 0 mm 2 m/S 705 mmHg 87%
    23:00 -1°C° 0 mm 2 m/S 705 mmHg 86%
    Mehr zeigen